Location: Downe
(51.3167°N, 0.0500°E)
Time: 12:33:01
(UTC+00:00)

Cosmos 2237 - Pass Details

Date: 17 November 2019
Orbit: 845 x 857 km, 70.8° (Epoch: 06 December)

Event Time Altitude Azimuth Distance (km) Brightness Sun altitude
Exits shadow 06:11:35 - 324° (NW) 2,780 6.4 -10.6°
Reaches altitude 10° 06:12:21 10° 322° (NW) 2,500 6.2 -10.5°
Maximum altitude 06:17:53 51° 248° (WSW) 1,068 4.5 -9.7°
Drops below altitude 10° 06:23:22 10° 174° (S) 2,476 7.0 -8.8°
Sets 06:25:51 0° 170° (S) 3,406 7.8 -8.5°
